Theta_e
305 303 304 302 302 300 301 302 301 301 301 300 298 298 303 306 309 314 315 316 318 318 317 315 314 314 314 312 313 309 310 309 311 315 316 315 314 313 310 308 308 308 309 310 310 313 313 310 306 306 310 308 306 305
304 304 302 302 301 301 301 302 301 301 300 299 298 302 304 307 312 314 315 316 317 316 315 314 315 314 313 312 311 309 312 310 312 317 317 313 314 313 310 310 308 309 310 315 311 314 311 309 308 306 307 307 306 306
302 302 302 301 300 301 302 302 301 300 300 299 300 305 305 309 314 314 314 315 315 315 314 313 312 312 313 313 309 312 311 310 309 312 313 315 312 312 312 313 310 308 308 313 314 312 311 311 308 307 306 306 306 305
301 300 301 302 302 302 302 301 300 299 298 299 303 307 309 313 313 314 314 314 314 313 313 309 309 311 312 312 309 311 310 309 309 310 310 311 312 310 312 311 312 310 309 311 310 310 308 307 309 307 306 306 305 305
301 301 301 301 301 301 301 300 299 299 300 304 306 309 312 312 313 313 313 312 313 311 311 309 309 310 310 309 310 310 309 309 309 309 309 310 308 309 309 310 311 311 311 311 313 310 310 309 308 307 307 306 305 305
301 301 301 301 300 300 299 298 300 303 307 306 308 310 312 311 312 312 311 312 313 311 308 311 308 308 308 309 310 309 309 309 307 308 307 307 308 307 310 309 308 309 309 310 310 309 308 309 307 306 306 306 305 305
299 299 299 299 299 301 302 302 304 307 308 308 310 312 312 312 312 312 310 310 310 311 308 308 308 307 308 308 308 309 308 308 308 307 307 307 307 305 307 308 307 307 307 308 308 308 307 307 306 305 304 305 305 305
300 301 301 301 302 304 306 307 308 309 309 308 309 310 310 311 312 312 310 310 311 311 310 312 308 308 307 308 308 307 307 307 306 307 306 306 306 305 307 305 305 306 305 306 307 307 307 307 306 305 304 304 304 304
302 302 305 304 306 308 308 308 308 310 309 310 311 309 310 309 307 307 307 309 310 311 311 309 310 311 307 308 307 307 307 307 307 306 307 306 307 308 306 305 305 305 305 305 305 305 305 305 305 305 304 304 304 304
303 304 304 307 307 308 308 308 308 309 310 310 310 310 304 305 306 307 308 309 306 308 310 311 310 309 308 308 307 307 307 309 309 308 307 308 308 306 305 306 306 305 305 305 305 305 304 305 304 304 304 304 304 304
305 306 306 307 307 308 308 308 308 310 311 310 306 300 303 306 308 307 304 305 307 311 311 311 308 309 308 310 310 307 309 309 307 308 307 307 309 307 306 306 305 305 306 305 305 305 304 304 304 304 304 304 304 304
305 306 306 306 305 305 306 309 311 310 309 308 302 303 306 306 304 303 304 309 311 310 310 310 309 309 309 308 308 307 308 307 306 306 306 306 308 306 307 306 306 305 305 305 305 304 305 304 304 304 304 304 304 303
305 307 305 307 306 308 310 309 309 309 308 305 307 303 305 301 305 308 310 312 311 310 309 309 311 308 307 307 306 308 307 307 304 307 306 307 307 308 307 307 307 307 306 305 304 304 305 304 304 304 304 304 303 303
307 307 307 307 308 309 309 309 308 308 309 309 305 304 307 306 311 313 314 311 309 310 309 309 307 307 306 307 307 306 306 305 305 306 307 310 307 307 306 306 306 305 306 306 304 304 305 304 304 304 304 304 303 302
306 307 308 308 307 309 308 308 308 309 306 307 307 307 309 310 311 312 309 308 309 308 307 308 307 307 307 305 308 306 306 306 305 306 312 309 309 308 307 306 306 306 305 305 304 304 304 304 304 303 303 302 301 300
306 306 306 307 308 306 306 307 308 308 301 303 304 307 308 310 309 308 309 309 308 308 307 307 309 308 306 306 305 306 305 306 308 309 307 309 306 305 306 306 306 306 304 304 304 304 304 303 302 302 301 300 300 299
304 304 306 307 306 306 307 308 308 305 302 304 304 306 307 306 306 308 308 308 308 307 311 309 307 305 308 306 305 307 309 310 307 308 308 307 306 305 306 305 305 305 304 304 304 304 303 302 301 301 300 300 299 299
304 304 306 305 305 306 307 307 303 302 302 303 304 304 305 305 306 306 308 308 307 307 306 307 306 307 308 307 308 309 306 307 308 308 306 305 305 306 305 305 305 304 304 304 303 303 302 301 302 300 299 299 299 299
303 305 305 304 305 306 303 301 299 301 302 303 303 303 304 305 305 305 307 306 307 306 305 305 307 308 308 307 309 308 307 307 307 305 305 304 305 305 304 305 304 304 304 303 303 303 303 302 302 300 301 300 299 298
304 304 305 305 306 305 299 297 299 301 302 302 303 302 302 303 303 304 306 306 306 305 305 306 307 306 306 306 306 307 307 307 306 305 304 303 304 304 304 304 304 304 304 304 304 303 302 302 302 301 300 300 301 301
303 302 303 303 303 298 298 299 300 301 302 302 303 302 302 302 303 304 305 305 306 305 305 304 304 305 305 306 305 306 305 304 305 305 305 303 304 304 304 304 304 304 304 303 303 302 302 301 301 301 301 301 300 300
299 300 301 303 298 296 297 298 300 301 302 303 303 303 302 303 303 303 304 304 304 304 303 303 304 305 304 303 303 304 302 303 304 304 305 304 303 303 303 303 303 303 303 302 302 301 301 301 300 299 299 298 298 298
298 300 300 297 295 295 295 296 298 300 302 303 303 303 303 303 302 302 302 302 302 302 302 303 304 304 304 304 303 303 302 303 303 302 303 304 303 303 302 302 302 302 302 301 300 299 299 299 300 299 298 298 298 298
299 297 295 295 296 296 296 297 298 300 301 302 302 302 304 303 301 301 303 303 302 301 301 302 303 303 303 303 303 303 301 300 301 301 300 300 302 302 303 302 302 301 300 299 299 299 298 298 298 298 298 298 298 297
296 294 295 295 295 297 297 300 300 299 300 302 302 302 302 301 302 303 303 304 302 301 301 301 302 302 303 304 303 302 300 300 301 300 300 300 301 302 303 303 302 301 300 301 300 299 299 298 298 298 297 297 298 298
296 293 297 297 297 297 298 298 298 299 300 301 300 300 300 301 302 302 302 302 302 302 302 302 302 302 302 303 303 302 301 300 300 301 300 299 299 299 300 301 302 302 302 301 300 300 300 299 299 298 298 298 298 298
295 295 294 296 296 297 299 298 298 299 299 299 300 301 300 300 300 301 299 300 300 300 299 299 300 301 301 300 301 302 303 302 300 299 300 300 300 300 300 300 300 300 300 300 300 299 299 299 299 299 298 298 298 298
294 295 295 295 296 296 299 299 301 300 300 298 299 300 300 301 301 298 298 297 297 297 298 299 298 298 300 302 302 302 302 302 301 301 300 300 300 301 301 300 300 300 299 299 300 300 299 299 299 299 299 299 299 299
295 294 294 296 295 296 296 297 298 296 297 298 301 300 299 297 298 298 296 294 294 294 295 295 294 295 295 297 298 300 300 301 301 301 301 300 300 300 299 299 299 300 299 299 299 299 298 298 298 297 296 295 295 295
295 295 295 295 295 296 296 295 296 296 296 297 297 296 296 297 296 295 294 294 294 294 294 293 294 294 294 294 294 296 297 298 299 299 299 299 298 298 299 299 298 298 299 298 298 296 295 295 295 295 295 295 296 296
294 295 295 295 295 295 295 295 295 295 295 296 296 296 297 297 296 295 294 293 293 293 293 293 293 294 294 294 294 294 294 295 294 295 295 295 294 294 294 295 295 295 295 295 295 295 295 295 295 295 295 296 296 296
293 294 295 295 296 294 294 294 294 294 295 295 295 294 295 295 294 295 295 294 293 293 293 293 293 293 294 294 295 294 295 294 295 294 294 295 295 295 294 294 294 293 293 293 294 295 295 295 296 296 296 297 297 296
290 293 294 295 295 295 295 295 295 296 295 295 295 294 293 294 295 294 293 293 293 293 293 293 293 293 294 294 293 293 294 293 293 293 293 293 293 293 293 293 293 292 293 293 293 295 296 296 297 297 297 297 297 296
Wind_Speed
51 59 71 64 71 69 66 63 61 59 56 51 46 42 53 55 43 48 39 34 37 12 33 42 31 39 32 28 13 26 14 11 10 5 4 3 3 5 6 9 12 10 9 5 6 6 9 11 12 6 3 5 7 6
51 61 56 67 69 67 64 61 59 57 53 49 44 48 53 53 41 57 49 32 28 28 32 34 28 30 24 24 26 37 8 23 9 5 4 3 3 4 6 4 14 7 8 6 10 6 8 13 8 17 1 6 7 7
39 53 63 64 63 64 61 60 58 56 53 49 49 55 56 50 50 54 42 34 44 45 33 33 20 22 17 19 31 19 13 13 12 8 8 3 3 5 5 8 10 11 22 4 7 11 17 13 19 7 12 8 7 8
50 51 56 62 63 61 59 57 55 53 50 50 58 56 60 59 59 45 46 42 46 30 17 11 11 16 15 20 24 13 24 13 19 14 6 3 3 11 6 5 9 9 14 14 9 12 7 11 20 20 16 12 9 9
50 53 53 54 55 55 53 55 53 47 53 52 57 51 65 60 55 49 42 40 40 22 12 20 20 16 20 21 14 17 25 22 17 10 4 4 6 4 8 3 8 21 10 10 5 13 15 10 9 20 18 18 14 12
37 42 44 46 48 51 53 49 53 60 58 65 52 63 64 58 55 52 27 21 24 34 23 5 11 13 14 15 19 24 19 15 10 7 6 7 1 5 4 5 11 18 26 20 18 8 7 10 5 7 16 19 17 15
34 38 41 44 48 50 54 59 53 63 70 60 65 68 65 51 50 37 20 26 32 29 14 8 8 13 17 18 17 17 15 11 8 8 6 10 7 6 3 5 4 12 18 23 22 18 11 10 10 9 10 16 18 16
33 32 36 40 41 52 65 70 70 63 57 63 65 65 57 47 37 29 36 31 25 15 11 5 5 18 17 18 14 11 10 7 3 6 4 10 7 7 5 16 25 18 9 14 19 22 18 11 13 10 10 12 15 16
30 29 35 49 48 57 60 59 66 68 61 75 77 63 48 39 23 31 26 26 21 13 7 6 9 6 14 18 14 10 7 3 3 5 9 7 6 7 11 19 18 20 26 21 14 16 16 17 14 15 15 15 16 16
22 29 33 51 57 65 68 61 75 67 68 68 66 39 10 21 42 34 24 7 9 5 4 7 18 7 25 16 6 7 5 3 3 6 5 5 10 23 23 22 17 17 19 17 18 24 22 22 20 17 19 17 17 17
32 47 51 50 47 57 59 60 67 76 75 48 13 8 47 39 22 8 6 4 3 3 8 15 20 17 21 8 7 6 4 3 3 4 3 3 4 18 34 41 33 23 17 18 18 19 22 23 22 20 19 19 19 18
34 51 58 63 53 65 72 71 73 59 33 28 36 37 25 6 7 5 3 4 5 6 11 16 23 27 18 14 5 5 4 4 3 5 2 4 5 16 16 22 29 31 24 18 18 17 18 21 21 20 20 20 19 17
43 44 44 58 66 77 69 53 49 43 46 59 21 7 7 4 4 6 7 4 6 14 27 31 17 17 9 6 5 3 4 3 7 3 4 6 8 6 3 10 10 14 23 23 19 19 18 19 19 20 20 19 18 19
33 34 46 50 73 58 52 46 47 52 35 9 6 6 3 4 5 3 7 11 16 34 37 33 20 6 7 4 4 4 4 5 4 5 6 5 10 14 7 6 9 11 16 23 22 21 19 19 20 19 19 20 21 21
29 34 43 61 56 48 45 45 35 22 9 6 6 4 3 6 12 21 25 27 36 44 40 21 11 10 5 3 3 4 5 5 6 5 3 3 5 7 11 9 8 9 13 21 22 21 20 22 23 22 20 18 16 14
32 38 46 59 47 51 48 32 24 17 7 5 5 4 13 11 9 19 24 35 43 38 27 11 5 5 3 5 5 6 6 6 4 4 5 6 6 7 11 11 10 10 15 21 21 21 23 25 22 20 17 15 13 13
39 26 51 53 50 45 32 26 13 8 5 5 3 13 7 12 11 15 28 37 40 32 4 5 5 5 6 4 6 5 4 2 6 6 6 6 7 7 9 11 12 14 17 20 21 21 23 22 17 16 15 14 14 13
24 49 53 49 44 30 26 16 8 5 6 7 5 8 7 15 20 21 27 33 34 14 9 5 8 5 5 7 4 4 8 8 5 6 7 6 5 8 10 12 13 14 19 19 21 19 21 23 18 14 14 15 15 14
44 52 47 48 33 18 6 5 6 5 6 8 14 13 14 18 14 18 25 33 20 12 10 5 4 4 4 4 5 8 11 12 9 9 7 7 8 10 11 12 14 18 19 20 21 21 21 22 19 17 18 15 15 15
52 48 43 35 27 6 6 5 6 6 4 6 13 14 14 13 16 19 23 29 17 11 3 3 2 4 5 8 8 8 10 12 12 12 11 10 11 12 13 17 18 19 20 20 19 19 20 20 19 18 20 20 18 15
51 39 32 28 19 11 6 5 5 6 9 5 17 11 9 12 14 15 18 21 12 6 3 5 6 9 9 8 10 8 10 12 14 11 14 14 15 16 16 17 19 20 22 22 23 22 23 23 22 22 19 18 16 16
30 32 27 23 7 5 6 6 8 8 5 11 12 7 9 7 8 10 13 10 4 10 7 5 9 8 10 9 10 10 9 11 12 13 12 12 19 20 21 21 22 22 23 24 25 25 24 22 22 20 19 18 17 17
27 24 12 6 6 5 2 4 4 3 4 8 8 5 3 5 8 14 4 6 7 13 20 8 9 11 10 10 11 11 11 13 14 16 16 15 14 19 21 22 24 25 23 23 24 22 23 23 21 20 17 16 18 18
22 6 5 4 5 4 3 1 5 5 5 5 4 4 5 4 14 4 4 7 10 16 21 20 14 13 13 15 18 17 16 16 14 14 15 16 16 19 22 24 25 25 24 23 23 24 23 23 23 22 21 20 20 20
7 4 5 4 4 5 4 3 3 3 2 3 4 3 4 7 4 4 3 6 20 22 24 24 22 21 23 22 21 20 20 21 20 18 17 17 16 16 20 23 25 26 25 26 26 26 26 23 23 25 25 24 24 23
4 1 1 3 6 4 5 5 5 5 5 3 3 8 5 3 3 5 3 16 23 26 27 29 30 28 27 26 23 25 27 26 24 22 21 20 18 17 18 21 24 25 25 27 29 29 28 26 26 27 27 26 27 27
3 2 3 4 6 10 4 6 13 5 4 6 5 4 4 5 6 3 8 15 23 22 23 24 27 28 28 26 26 25 24 26 30 29 26 23 22 21 21 21 22 23 21 24 26 27 27 27 27 28 28 29 29 30
1 6 6 9 8 9 3 4 3 4 4 9 12 6 7 6 3 7 9 14 18 19 16 20 20 23 26 22 19 21 25 24 22 25 28 28 27 26 26 25 22 20 21 22 22 21 22 23 24 25 27 28 28 27
4 10 11 4 3 4 5 4 4 6 8 18 6 4 4 5 9 12 13 10 8 12 15 16 16 16 17 22 25 25 26 27 28 30 31 32 31 32 31 29 27 27 28 27 26 27 27 27 27 27 27 26 26 25
7 15 5 9 4 6 6 10 11 9 12 17 13 6 9 7 11 13 13 12 13 13 13 14 13 14 15 19 22 26 27 27 28 30 32 33 32 27 26 26 28 27 28 29 29 28 27 27 26 26 25 25 24 23
11 17 8 8 5 9 13 18 18 17 16 13 15 14 13 8 11 17 18 17 17 18 18 17 16 15 16 17 20 24 28 26 25 26 28 27 24 20 17 18 20 22 22 23 24 25 25 25 25 25 24 24 22 22
7 13 11 8 7 12 17 17 15 13 12 16 15 18 15 11 10 15 17 16 18 18 17 17 17 18 18 18 16 13 12 10 13 16 17 16 15 14 13 14 15 15 16 17 19 20 21 22 22 22 22 21 22 21
6 12 16 15 8 8 10 10 9 7 8 8 9 17 23 16 10 13 15 19 20 20 20 17 15 16 17 15 14 13 13 11 10 11 11 11 12 13 14 15 15 15 16 17 17 17 18 19 21 22 21 21 21 20
Wind_Direction
181 184 188 187 190 190 192 188 191 193 196 199 196 199 186 199 195 180 165 160 172 172 159 164 172 153 160 153 151 158 140 185 187 160 182 192 182 169 167 189 174 178 174 176 203 210 252 214 142 201 139 127 164 174
166 170 173 181 179 182 185 185 187 190 194 191 191 187 186 195 186 167 162 167 172 151 139 153 164 166 164 168 150 162 151 161 157 150 202 153 209 148 197 188 169 196 201 173 196 208 237 185 188 212 193 184 191 192
155 165 168 167 173 179 178 180 184 188 187 185 186 180 185 194 169 164 165 170 136 121 122 132 120 156 177 172 169 153 152 155 165 146 148 181 193 155 188 219 177 225 202 231 184 231 235 214 218 216 215 219 204 202
150 154 158 161 165 171 176 179 182 182 184 185 180 174 181 175 164 161 148 142 135 132 112 94 111 125 137 162 168 178 159 146 153 153 145 167 215 195 200 225 193 188 189 211 237 240 248 245 221 226 224 219 216 206
139 147 154 160 167 171 175 178 178 182 181 177 172 168 172 153 156 146 146 148 144 126 122 121 110 119 130 142 150 147 148 143 152 162 197 202 203 163 242 326 234 205 193 201 216 222 221 225 227 221 224 219 215 215
141 147 154 162 166 170 175 180 176 177 175 172 167 177 162 156 154 146 114 153 166 134 113 120 112 135 137 144 141 147 150 152 163 164 189 222 103 191 226 227 232 223 229 206 218 228 218 219 196 212 220 220 213 213
154 159 163 168 170 174 176 174 172 172 168 166 169 171 166 154 152 150 146 146 145 135 100 111 113 156 150 145 142 148 155 163 170 195 222 225 173 188 259 232 224 214 223 220 222 230 216 215 222 225 231 219 217 217
162 162 171 173 173 173 164 162 160 160 160 162 172 156 150 156 155 143 144 140 146 109 100 108 114 143 156 145 129 150 139 152 194 210 203 232 145 198 244 238 235 243 226 225 222 220 233 217 215 215 208 201 204 207
168 165 160 167 152 159 156 154 158 157 162 163 161 149 137 131 125 128 126 113 106 102 107 138 149 151 172 158 123 143 147 164 150 223 231 210 217 219 232 238 237 226 230 226 210 214 214 212 213 210 205 208 213 208
153 168 161 158 156 157 157 155 156 159 163 150 139 140 104 125 131 126 119 100 46 70 114 140 131 134 166 132 139 122 155 201 193 218 215 235 242 242 236 242 242 234 232 225 223 197 207 213 215 212 212 210 208 204
154 154 153 155 150 154 154 154 156 153 143 137 125 94 125 121 128 70 98 114 165 102 115 126 137 134 144 137 128 134 164 175 222 180 214 250 251 225 231 231 231 231 228 220 217 218 217 213 209 208 204 203 203 203
141 153 155 156 150 148 150 155 153 145 148 149 126 125 124 101 78 96 148 179 177 148 133 140 143 130 135 132 105 156 178 177 208 120 225 259 261 254 240 230 231 227 225 214 210 213 212 207 206 204 200 199 202 205
145 146 147 149 151 141 135 135 136 138 139 122 113 84 97 120 127 162 149 173 129 149 139 135 132 123 128 100 104 181 156 187 128 178 232 233 257 235 217 193 207 207 215 214 205 209 204 201 201 201 197 198 198 205
136 150 154 151 151 141 139 133 125 123 125 96 120 110 112 183 207 161 149 128 133 137 138 134 124 114 110 118 154 131 170 148 202 224 237 249 249 224 183 193 191 197 198 199 194 199 197 197 196 196 198 198 199 206
136 144 152 152 150 140 137 134 131 124 80 86 90 102 179 129 109 109 111 125 139 138 136 120 95 99 101 119 181 144 171 219 217 233 206 228 170 155 169 184 185 195 195 192 189 192 194 192 192 191 192 200 206 210
142 150 157 157 146 146 143 131 121 98 62 55 70 78 111 94 71 107 133 135 145 138 129 106 119 134 145 151 159 191 190 215 227 210 209 198 177 191 193 188 189 194 185 180 183 190 190 194 194 189 192 203 204 202
149 142 147 144 148 142 139 134 115 61 71 88 67 116 113 114 134 136 146 146 151 144 121 132 122 167 128 174 191 185 220 195 191 168 183 179 181 193 184 174 179 179 173 175 178 182 189 188 181 189 197 202 199 193
148 156 156 157 148 132 117 114 68 61 72 86 89 102 92 137 145 141 158 157 155 138 140 157 131 158 161 182 195 190 193 189 161 169 175 168 170 181 181 173 172 173 172 175 177 179 183 176 179 184 183 185 189 197
157 153 155 156 153 126 82 62 55 86 77 88 107 103 112 125 135 151 156 161 160 145 118 135 138 164 174 195 152 169 179 179 180 184 175 170 174 183 176 179 171 167 173 176 174 176 183 177 188 180 176 186 194 200
162 161 159 154 152 98 75 53 74 89 113 136 119 116 121 127 135 153 161 171 178 141 140 160 174 177 120 140 166 167 170 176 178 175 182 183 182 179 181 174 173 171 172 175 180 180 175 176 177 181 183 190 199 202
162 149 148 147 108 76 96 113 98 109 128 125 131 110 110 132 134 144 158 178 194 156 170 185 183 147 141 155 169 168 171 172 185 195 198 191 186 177 179 174 174 175 176 179 184 186 184 187 184 187 194 202 208 206
147 154 137 149 76 73 74 48 113 118 105 143 135 106 118 128 127 156 165 194 223 199 203 192 185 172 184 179 178 191 193 181 181 194 188 202 189 184 187 183 184 183 188 189 195 197 197 199 202 206 208 210 216 222
143 142 135 71 85 69 73 58 98 106 127 154 134 102 128 134 153 146 170 217 224 210 206 205 193 200 201 205 201 196 199 183 198 197 194 202 207 198 196 193 199 195 195 204 207 210 209 207 210 217 219 213 218 226
131 80 76 80 78 96 135 124 115 96 106 145 143 115 120 114 150 196 220 200 201 200 200 205 198 194 198 204 204 204 197 195 193 198 195 200 206 204 205 206 207 215 217 215 213 215 219 219 222 226 227 226 226 229
84 54 90 99 133 136 136 134 114 91 135 163 115 129 125 151 188 218 234 176 171 193 204 204 203 207 206 209 211 212 204 199 198 202 202 205 211 213 209 215 222 226 223 217 221 223 227 229 230 231 234 234 236 236
85 137 161 111 150 136 147 130 148 159 123 101 165 124 142 170 183 232 210 175 191 207 206 205 207 210 216 217 217 218 222 218 211 212 214 214 216 225 226 222 223 228 230 231 232 235 236 237 237 238 240 242 243 243
111 127 173 159 149 147 114 140 153 116 138 167 154 147 158 182 217 225 168 191 206 221 229 226 220 220 224 231 229 225 222 223 222 226 228 234 242 245 237 240 246 251 249 245 243 241 242 244 246 247 248 249 250 251
165 159 153 162 158 144 123 130 151 161 169 152 152 180 186 198 196 176 198 206 215 224 227 232 240 237 233 233 232 228 225 227 228 233 240 243 241 236 238 244 252 256 253 249 248 245 246 249 252 253 253 255 257 257
186 168 148 160 132 162 185 172 191 198 181 170 172 169 198 195 185 197 197 192 203 219 226 232 240 238 230 229 232 233 231 224 222 228 233 239 239 241 244 247 247 247 248 248 249 253 257 258 258 260 260 259 258 257
182 169 155 174 195 197 188 192 197 188 186 194 193 212 213 205 208 213 218 218 215 221 236 242 245 247 243 239 234 232 236 234 231 235 240 246 253 257 253 251 250 248 247 250 254 254 253 252 252 251 248 247 247 248
194 194 186 183 213 209 203 205 213 214 207 210 218 230 237 233 233 240 245 245 244 243 241 246 253 251 245 245 244 239 238 240 239 238 241 246 250 251 248 242 242 241 243 246 249 252 252 251 250 250 250 250 250 247
222 216 204 203 197 196 203 207 209 209 209 216 226 225 229 236 238 242 238 238 241 246 249 252 247 248 249 246 239 232 227 237 235 232 231 231 229 230 230 233 239 243 247 252 254 254 251 248 248 248 249 249 247 246
289 246 225 230 203 180 191 178 192 197 198 213 223 222 225 223 235 235 236 236 242 246 245 245 251 258 240 228 223 214 203 203 204 204 210 218 224 229 235 241 247 252 255 257 257 257 253 248 247 248 248 245 243 240